This is the latest recevied weather packets stored in our database for station/object N8QQQ. If no packets are shown the sender has not sent any weather packets the latest 10 day(s).
| Time | Temp. | Humidity | Pressure | Rain* | Wind** | Luminosity | Snow |
|---|---|---|---|---|---|---|---|
| 1777624727 | -1.67° C | 95% | 1015.6 hPa | 0 mm | - | 0 W/m² | - |
| 1777624423 | -1.67° C | 95% | 1015.5 hPa | 0 mm | - | 0 W/m² | - |
| 1777624120 | -1.11° C | 94% | 1015.4 hPa | 0 mm | - | 0 W/m² | - |
| 1777623817 | -1.67° C | 93% | 1015.6 hPa | 0 mm | - | 0 W/m² | - |
| 1777623513 | -1.67° C | 95% | 1015.6 hPa | 0 mm | - | 0 W/m² | - |
| 1777623211 | -1.67° C | 95% | 1015.5 hPa | 0 mm | - | 0 W/m² | - |
| 1777622908 | -1.67° C | 95% | 1015.6 hPa | 0 mm | - | 0 W/m² | - |
| 1777622604 | -1.11° C | 94% | 1015.4 hPa | 0 mm | - | 0 W/m² | - |
| 1777622301 | -1.11° C | 93% | 1015.7 hPa | 0 mm | - | 0 W/m² | - |
| 1777621998 | -1.11° C | 92% | 1015.6 hPa | 0 mm | - | 0 W/m² | - |
| 1777621693 | -1.11° C | 90% | 1015.5 hPa | 0 mm | - | 0 W/m² | - |
| 1777621390 | -1.11° C | 90% | 1015.5 hPa | 0 mm | - | 0 W/m² | - |
| 1777621085 | -1.11° C | 90% | 1015.3 hPa | 0 mm | - | 0 W/m² | - |
| 1777620782 | -1.11° C | 90% | 1015.6 hPa | 0 mm | - | 0 W/m² | - |
| 1777620478 | -1.11° C | 91% | 1015.6 hPa | 0 mm | - | 0 W/m² | - |
| 1777620175 | -1.67° C | 92% | 1015.5 hPa | 0 mm | - | 0 W/m² | - |
| 1777619871 | -1.11° C | 94% | 1015.7 hPa | 0 mm | - | 0 W/m² | - |
| 1777619568 | -1.11° C | 92% | 1015.6 hPa | 0 mm | - | 0 W/m² | - |
| 1777619262 | -1.11° C | 90% | 1015.9 hPa | 0 mm | - | 0 W/m² | - |
| 1777618951 | -1.11° C | 90% | 1015.6 hPa | 0 mm | - | 0 W/m² | - |
| 1777618646 | -1.11° C | 90% | 1015.8 hPa | 0 mm | - | 0 W/m² | - |
| 1777618341 | -1.67° C | 93% | 1015.8 hPa | 0 mm | - | 0 W/m² | - |
| 1777618039 | -1.67° C | 96% | 1015.7 hPa | 0 mm | - | 0 W/m² | - |
| 1777617735 | -1.67° C | 97% | 1015.8 hPa | 0 mm | - | 0 W/m² | - |
| 1777617434 | -1.67° C | 97% | 1015.8 hPa | 0 mm | - | 0 W/m² | - |
* Rain latest hour (hover to see other rain measurements)
** Current wind speed in m/s (hover to see current wind gust speed)